Location: Ariel
(45.9570°N, 122.5700°W)
Time: 06:05:35
(UTC-07:00)

A-11 Canister half - Pass Details

Date: 29 August 2019
Orbit: 1514 x 1686 km, 47.2° (Epoch: 15 September)

Event Time Altitude Azimuth Distance (km) Brightness Sun altitude
Rises 22:25:25 0° 290° (WNW) 4,738 12.6 -23.6°
Reaches altitude 10° 22:28:28 10° 288° (WNW) 3,774 11.9 -24.0°
Maximum altitude 22:37:56 66° 209° (SSW) 1,736 9.1 -25.2°
Enters shadow 22:41:34 43° 145° (SE) 2,178 9.3 -25.6°
